DW2738 Weather Reports


Display with metric or nautical units.
time (UTC)temp
F
wind
direction
speed
MPH
gust
MPH
rain 1hr
in
rain 24hr
in
rain mn
in
humidity
%
barometer
mb
20260503054135 47 254 0.0 0.0 0.00 0.00 0.00 67 1010.4
20260503053633 48 246 0.0 1.0 0.00 0.00 0.00 67 1010.4
20260503053132 48 259 0.0 2.0 0.00 0.00 0.00 65 1010.4
20260503052627 49 283 0.0 4.0 0.00 0.00 0.00 64 1010.2
20260503052124 48 287 0.0 2.0 0.00 0.00 0.00 69 1010.3
20260503051619 48 294 0.0 3.0 0.00 0.00 0.00 70 1010.7
20260503051117 47 239 2.0 2.0 0.00 0.00 0.00 71 1010.7
20260503050614 47 246 0.0 1.0 0.00 0.00 0.00 71 1010.6
20260503050110 47 255 2.0 3.0 0.00 0.00 0.00 71 1010.7
20260503045608 47 279 0.0 0.0 0.00 0.00 0.00 73 1010.7
20260503045105 47 262 0.0 1.0 0.00 0.00 0.00 73 1010.6
20260503044601 46 243 0.0 0.0 0.00 0.00 0.00 72 1010.7
20260503044059 46 243 0.0 0.0 0.00 0.00 0.00 74 1010.7
20260503043555 46 243 0.0 0.0 0.00 0.00 0.00 74 1010.8
20260503043052 46 243 0.0 0.0 0.00 0.00 0.00 75 1010.9
20260503042549 46 243 0.0 0.0 0.00 0.00 0.00 75 1010.6
20260503042045 46 243 0.0 0.0 0.00 0.00 0.00 77 1010.8
20260503041542 46 243 0.0 0.0 0.00 0.00 0.00 78 1010.9
20260503041040 46 215 0.0 0.0 0.00 0.00 0.00 77 1010.6
20260503040537 47 215 0.0 1.0 0.00 0.00 0.00 79 1010.8
20260503040034 46 243 0.0 0.0 0.00 0.00 0.00 78 1010.9
20260503035531 46 243 0.0 2.0 0.00 0.00 0.00 78 1011.2
20260503035028 47 254 0.0 0.0 0.00 0.00 0.00 76 1011.1
20260503034525 47 254 0.0 1.0 0.00 0.00 0.00 77 1010.6
20260503034022 47 254 0.0 0.0 0.00 0.00 0.00 76 1010.9
20260503033520 47 254 0.0 0.0 0.00 0.00 0.00 79 1011.2
20260503033018 46 254 0.0 0.0 0.00 0.00 0.00 78 1010.9
20260503032516 47 254 0.0 0.0 0.00 0.00 0.00 79 1010.9
20260503032014 47 240 0.0 0.0 0.00 0.00 0.00 78 1011.0
20260503031511 47 240 0.0 1.0 0.00 0.00 0.00 77 1010.8
20260503031008 46 262 0.0 0.0 0.00 0.00 0.00 77 1010.7
20260503030504 47 262 0.0 0.0 0.00 0.00 0.00 77 1010.9
20260503030001 47 262 0.0 1.0 0.00 0.00 0.00 76 1010.9
20260503025458 46 254 0.0 0.0 0.00 0.00 0.00 74 1011.0
20260503024955 46 254 0.0 0.0 0.00 0.00 0.00 75 1010.9
20260503024451 46 254 0.0 0.0 0.00 0.00 0.00 75 1011.0
20260503023949 46 254 0.0 0.0 0.00 0.00 0.00 76 1011.1
20260503023445 47 254 0.0 0.0 0.00 0.00 0.00 78 1010.9
20260503022942 47 254 0.0 0.0 0.00 0.00 0.00 77 1010.9
20260503022438 47 254 0.0 0.0 0.00 0.00 0.00 78 1010.8
20260503021934 47 261 0.0 0.0 0.00 0.00 0.00 75 1010.9
20260503021430 47 261 0.0 0.0 0.00 0.00 0.00 75 1010.9
20260503020928 47 261 0.0 0.0 0.00 0.00 0.00 76 1010.9
20260503020425 47 262 0.0 0.0 0.00 0.00 0.00 77 1010.8
20260503015922 47 262 0.0 0.0 0.00 0.00 0.00 75 1010.9
20260503015418 47 270 0.0 0.0 0.00 0.00 0.00 73 1011.0
20260503014914 47 270 0.0 0.0 0.00 0.00 0.00 76 1011.1
20260503014412 47 263 0.0 0.0 0.00 0.00 0.00 76 1011.1
20260503013910 47 263 0.0 0.0 0.00 0.00 0.00 76 1011.1
20260503013406 47 254 0.0 0.0 0.00 0.00 0.00 77 1010.8
20260503012903 47 249 0.0 2.0 0.00 0.00 0.00 77 1011.1
20260503012401 47 325 0.0 0.0 0.00 0.00 0.00 76 1010.9
20260503011858 47 254 0.0 0.0 0.00 0.00 0.00 74 1010.8
20260503011355 48 262 0.0 0.0 0.00 0.00 0.00 74 1010.6
20260503010851 48 300 0.0 1.0 0.00 0.00 0.00 74 1010.4
20260503010348 48 279 0.0 0.0 0.00 0.00 0.00 71 1010.7
20260503005845 48 261 0.0 1.0 0.00 0.00 0.00 73 1010.7
20260503005343 48 261 0.0 1.0 0.00 0.00 0.00 71 1010.6
20260503004838 48 246 0.0 0.0 0.00 0.00 0.00 73 1010.6
20260503004336 49 279 0.0 0.0 0.00 0.00 0.00 71 1010.5
20260503003834 49 261 0.0 0.0 0.00 0.00 0.00 71 1010.3
20260503003330 50 270 0.0 0.0 0.00 0.00 0.00 68 1010.2
20260503002827 50 261 0.0 0.0 0.00 0.00 0.00 66 1010.1
20260503002325 50 254 0.0 0.0 0.00 0.00 0.00 66 1010.3
20260503001821 51 254 0.0 0.0 0.00 0.00 0.00 65 1010.0
20260503001317 51 254 0.0 0.0 0.00 0.00 0.00 67 1010.1
20260503000815 52 262 1.0 1.0 0.00 0.00 0.00 66 1010.1
20260503000312 52 261 0.0 0.0 0.00 0.00 0.00 62 1010.1
20260502235809 53 261 0.0 0.0 0.00 0.00 0.00 61 1010.1
20260502235306 53 261 0.0 0.0 0.00 0.00 0.00 59 1010.2
20260502234803 54 261 0.0 0.0 0.00 0.00 0.00 58 1010.0
20260502234300 54 261 0.0 0.0 0.00 0.00 0.00 57 1010.1
20260502233756 55 261 0.0 1.0 0.00 0.00 0.00 55 1010.0
20260502233253 55 254 0.0 1.0 0.00 0.00 0.00 55 1010.0
20260502232749 56 261 0.0 2.0 0.00 0.00 0.00 56 1010.2
20260502232246 56 261 0.0 2.0 0.00 0.00 0.00 56 1010.2
20260502231742 56 270 0.0 0.0 0.00 0.00 0.00 52 1010.1
20260502231240 57 246 2.0 3.0 0.00 0.00 0.00 54 1010.1
20260502230739 57 270 3.0 3.0 0.00 0.00 0.00 52 1010.0
20260502230237 57 254 0.0 0.0 0.00 0.00 0.00 52 1010.3
20260502225733 57 325 0.0 1.0 0.00 0.00 0.00 53 1009.9
20260502225230 58 246 0.0 2.0 0.00 0.00 0.00 52 1010.0
20260502224726 58 307 0.0 2.0 0.00 0.00 0.00 51 1009.9
20260502224223 58 270 1.0 2.0 0.00 0.00 0.00 49 1010.1
20260502223720 58 270 0.0 2.0 0.00 0.00 0.00 50 1010.0
20260502223218 59 246 0.0 0.0 0.00 0.00 0.00 48 1009.7
20260502222716 59 257 2.0 2.0 0.00 0.00 0.00 47 1009.8
20260502222212 59 251 2.0 2.0 0.00 0.00 0.00 49 1009.9
20260502221708 59 286 0.0 3.0 0.00 0.00 0.00 49 1009.6
20260502221205 59 257 1.0 2.0 0.00 0.00 0.00 48 1009.7
20260502220701 60 270 0.0 3.0 0.00 0.00 0.00 46 1009.9
20260502220158 60 257 0.0 1.0 0.00 0.00 0.00 47 1009.7
20260502215654 60 257 0.0 2.0 0.00 0.00 0.00 44 1009.7
20260502215151 60 261 0.0 2.0 0.00 0.00 0.00 44 1009.8
20260502214649 60 286 0.0 2.0 0.00 0.00 0.00 46 1010.1
20260502214146 61 324 3.0 3.0 0.00 0.00 0.00 45 1009.6
20260502213643 61 243 1.0 2.0 0.00 0.00 0.00 43 1009.7
20260502213140 61 261 0.0 2.0 0.00 0.00 0.00 44 1009.8
20260502212639 61 315 2.0 3.0 0.00 0.00 0.00 48 1009.7
20260502212137 60 275 0.0 4.0 0.00 0.00 0.00 46 1009.6
20260502211632 61 251 3.0 3.0 0.00 0.00 0.00 45 1009.6
20260502211129 60 270 2.0 4.0 0.00 0.00 0.00 44 1009.8
20260502210627 60 270 2.0 4.0 0.00 0.00 0.00 44 1009.8
20260502210124 60 251 3.0 4.0 0.00 0.00 0.00 44 1009.8
20260502205620 60 261 2.0 3.0 0.00 0.00 0.00 44 1009.7
20260502205117 60 237 3.0 4.0 0.00 0.00 0.00 45 1009.5
20260502204614 60 248 3.0 5.0 0.00 0.00 0.00 47 1009.4
20260502204112 61 218 2.0 5.0 0.00 0.00 0.00 45 1009.5
20260502203609 61 235 3.0 4.0 0.00 0.00 0.00 49 1009.5
20260502203106 60 246 3.0 5.0 0.00 0.00 0.00 48 1009.7
20260502202601 61 203 2.0 2.0 0.00 0.00 0.00 52 1009.6
20260502202100 60 230 3.0 3.0 0.00 0.00 0.00 48 1009.7
20260502201556 60 230 3.0 3.0 0.00 0.00 0.00 48 1009.7
20260502201052 60 265 2.0 4.0 0.00 0.00 0.00 51 1009.7
20260502200548 60 333 3.0 3.0 0.00 0.00 0.00 50 1009.8
20260502200046 60 270 2.0 4.0 0.00 0.00 0.00 49 1009.8
20260502195544 61 345 2.0 3.0 0.00 0.00 0.00 52 1009.8
20260502195039 61 244 4.0 4.0 0.00 0.00 0.00 48 1009.9
20260502194536 60 73 0.0 4.0 0.00 0.00 0.00 46 1010.0
20260502194032 61 270 3.0 6.0 0.00 0.00 0.00 47 1010.2
20260502193530 61 258 4.0 5.0 0.00 0.00 0.00 49 1010.1
20260502193027 61 325 1.0 4.0 0.00 0.00 0.00 52 1010.2
20260502192522 61 225 2.0 4.0 0.00 0.00 0.00 52 1010.2
20260502192020 62 240 0.0 2.0 0.00 0.00 0.00 55 1010.3
20260502191517 62 246 3.0 3.0 0.00 0.00 0.00 54 1010.4
20260502191015 61 259 3.0 4.0 0.00 0.00 0.00 55 1010.5
20260502190512 61 282 2.0 5.0 0.00 0.00 0.00 53 1010.4
20260502190008 61 248 3.0 3.0 0.00 0.00 0.00 54 1010.6
20260502185503 61 322 2.0 4.0 0.00 0.00 0.00 52 1010.7
20260502185001 61 319 2.0 3.0 0.00 0.00 0.00 58 1011.0
20260502184456 61 319 2.0 3.0 0.00 0.00 0.00 58 1011.0
20260502183953 61 300 0.0 3.0 0.00 0.00 0.00 56 1010.9
20260502183449 60 237 2.0 5.0 0.00 0.00 0.00 57 1011.0
20260502182944 60 182 6.0 6.0 0.00 0.00 0.00 57 1011.1
20260502182440 59 255 3.0 4.0 0.00 0.00 0.00 58 1011.0
20260502181936 59 258 2.0 5.0 0.00 0.00 0.00 59 1011.2
20260502181434 60 265 3.0 3.0 0.00 0.00 0.00 57 1011.3
20260502180933 60 264 1.0 5.0 0.00 0.00 0.00 57 1011.3
20260502180429 61 349 2.0 4.0 0.00 0.00 0.00 57 1011.0
20260502170349 59 254 2.0 3.0 0.00 0.00 0.00 61 1011.3
20260502164336 59 267 3.0 4.0 0.00 0.00 0.00 64 1011.5
20260502163832 59 250 4.0 5.0 0.00 0.00 0.00 65 1011.6
20260502163328 59 205 3.0 4.0 0.00 0.00 0.00 66 1011.6
20260502162826 58 237 3.0 3.0 0.00 0.00 0.00 66 1011.7
20260502162322 58 259 2.0 3.0 0.00 0.00 0.00 68 1011.9
20260502161820 58 258 2.0 3.0 0.00 0.00 0.00 66 1012.1
20260502161315 58 278 0.0 3.0 0.00 0.00 0.00 67 1011.9
20260502160813 57 255 3.0 4.0 0.00 0.00 0.00 68 1012.1
20260502160312 58 251 1.0 4.0 0.00 0.00 0.00 66 1012.3
20260502152247 58 240 3.0 5.0 0.00 0.00 0.00 66 1011.9
20260502151744 59 270 3.0 5.0 0.00 0.00 0.00 66 1011.7
20260502151241 58 254 3.0 3.0 0.00 0.00 0.00 66 1011.8
20260502150739 58 279 0.0 3.0 0.00 0.00 0.00 68 1011.6
20260502150236 58 175 0.0 4.0 0.00 0.00 0.00 69 1011.7
20260502130624 55 258 3.0 4.0 0.00 0.00 0.00 78 1012.2
20260502130122 55 262 0.0 2.0 0.00 0.00 0.00 80 1012.1
20260502123607 55 240 3.0 3.0 0.00 0.00 0.00 80 1012.1
20260502123104 55 237 2.0 3.0 0.00 0.00 0.00 81 1012.2
20260502122600 55 270 0.0 3.0 0.00 0.00 0.00 80 1012.3
20260502122057 55 255 1.0 4.0 0.00 0.00 0.00 81 1012.4
20260502121555 54 237 0.0 4.0 0.00 0.00 0.00 81 1012.6
20260502121052 53 258 1.0 3.0 0.00 0.00 0.00 83 1012.4
20260502120548 54 206 2.0 3.0 0.00 0.00 0.00 83 1012.2
20260502115544 53 243 1.0 3.0 0.00 0.00 0.00 85 1012.2
20260502115039 51 253 2.0 3.0 0.00 0.00 0.00 87 1012.1
20260502114536 51 270 1.0 2.0 0.00 0.00 0.00 88 1012.0
20260502114033 50 270 1.0 2.0 0.00 0.00 0.00 90 1012.0
20260502113531 50 249 1.0 2.0 0.00 0.00 0.00 91 1012.0
20260502113029 49 264 0.0 2.0 0.00 0.00 0.00 93 1012.0
20260502112526 48 246 0.0 1.0 0.00 0.00 0.00 96 1012.3
20260502112024 48 253 2.0 2.0 0.00 0.00 0.00 96 1012.1
20260502111521 48 234 0.0 2.0 0.00 0.00 0.00 97 1011.9
20260502111018 47 246 0.0 1.0 0.00 0.00 0.00 97 1012.1
20260502110515 47 254 0.0 0.0 0.00 0.00 0.00 97 1012.0
20260502110013 47 243 0.0 1.0 0.00 0.00 0.00 97 1012.0
20260502105510 46 234 0.0 1.0 0.00 0.00 0.00 97 1012.0
20260502105008 46 254 0.0 0.0 0.00 0.00 0.00 97 1012.1
20260502104505 46 254 0.0 0.0 0.00 0.00 0.00 97 1012.0
20260502104002 46 254 0.0 0.0 0.00 0.00 0.00 97 1012.0
20260502103459 46 254 0.0 0.0 0.00 0.00 0.00 97 1011.7
20260502102956 46 254 0.0 0.0 0.00 0.00 0.00 97 1011.9
20260502102454 46 254 0.0 0.0 0.00 0.00 0.00 97 1011.6
20260502101950 46 254 0.0 0.0 0.00 0.00 0.00 97 1011.5
20260502101449 46 254 0.0 0.0 0.00 0.00 0.00 97 1011.5
20260502100947 46 254 0.0 0.0 0.00 0.00 0.00 96 1011.5
20260502100445 46 188 0.0 0.0 0.00 0.00 0.00 96 1011.6
20260502091420 47 261 0.0 0.0 0.00 0.00 0.00 95 1011.7
20260502090916 48 261 0.0 1.0 0.00 0.00 0.00 96 1011.4
20260502090414 48 294 0.0 1.0 0.00 0.00 0.00 95 1011.3
20260502071308 49 270 1.0 1.0 0.00 0.00 0.00 92 1011.8
20260502070807 49 240 1.0 3.0 0.00 0.00 0.00 92 1011.8
20260502070304 49 243 2.0 2.0 0.00 0.00 0.00 93 1011.6
20260502065803 49 210 0.0 2.0 0.00 0.00 0.00 93 1011.9
20260502065300 49 258 2.0 3.0 0.00 0.00 0.00 93 1011.7
20260502064758 49 188 0.0 2.0 0.00 0.00 0.00 93 1011.6
20260502064256 49 209 2.0 3.0 0.00 0.00 0.00 93 1011.7
20260502063753 49 249 1.0 2.0 0.00 0.00 0.00 93 1011.8
20260502063251 49 172 0.0 2.0 0.00 0.00 0.00 93 1011.5
20260502062748 49 180 0.0 1.0 0.00 0.00 0.00 93 1011.9
20260502062245 49 15 0.0 0.0 0.00 0.00 0.00 92 1011.8
20260502061744 49 157 0.0 1.0 0.00 0.00 0.00 92 1012.0
20260502061242 49 212 1.0 3.0 0.00 0.00 0.00 92 1011.9
20260502060741 50 225 0.0 3.0 0.00 0.00 0.00 92 1012.0
20260502060237 50 120 0.0 2.0 0.00 0.00 0.00 92 1012.1
20260502055736 50 203 1.0 2.0 0.00 0.00 0.00 92 1011.9
20260502055233 50 172 0.0 2.0 0.00 0.00 0.00 92 1011.9
20260502054732 49 135 2.0 2.0 0.00 0.00 0.00 92 1012.0